Location: Seattle
(47.6064°N, 122.3308°W)
Time: 05:29:32
(UTC-08:00)

N. Korean satellite - Pass Details

Date: 05 December 2022
Orbit: 407 x 441 km, 97.3° (Epoch: 05 February)

Event Time Altitude Azimuth Distance (km) Brightness Sun altitude
Rises 05:38:02 0° 11° (NNE) 2,522 10.2 -19.9°
Reaches altitude 10° 05:40:06 10° 11° (N) 1,635 9.2 -19.6°
Maximum altitude 05:43:37 82° 285° (WNW) 474 6.3 -19.0°
Drops below altitude 10° 05:47:03 10° 197° (SSW) 1,595 9.1 -18.5°
Sets 05:49:03 0° 196° (SSW) 2,454 10.1 -18.1°
